Theta_e
315 312 317 317 315 313 318 318 315 319 319 318 320 324 324 324 329 331 331 344 346 346 341 340 339 339 338 337 336 337 338 338 339 341 339 338 337 336 337 336 337 337 340 340 339 338 337 336 335
313 317 318 311 315 317 316 316 317 318 320 319 321 322 322 323 326 329 332 345 348 348 342 340 339 339 338 336 335 336 337 338 339 340 340 339 338 337 337 336 337 339 340 340 338 338 337 336 336
316 319 315 315 312 317 316 316 316 319 319 320 320 318 318 319 318 322 338 345 349 348 345 341 340 340 338 336 335 335 335 336 337 338 340 340 339 338 337 336 337 339 341 340 338 337 336 336 336
319 315 312 317 320 318 318 316 315 321 321 319 320 319 316 315 317 328 339 347 349 349 345 340 340 339 338 336 336 336 336 336 336 338 339 340 341 339 338 336 336 338 340 338 338 338 338 336 336
319 310 316 319 319 319 319 318 318 321 321 321 316 314 313 312 316 335 339 342 348 348 347 347 345 341 338 337 336 336 336 336 336 337 339 341 341 340 338 337 337 337 337 337 338 338 337 337 337
314 311 316 316 319 321 321 319 319 318 316 319 312 312 311 311 315 337 340 345 344 346 349 349 348 345 339 337 337 337 337 336 336 337 340 342 342 340 338 338 337 337 336 336 337 338 337 337 337
315 313 318 318 319 321 319 316 317 313 314 314 316 311 311 309 311 312 320 338 339 349 349 348 348 345 341 338 337 337 337 337 336 336 339 342 342 340 339 338 338 337 336 336 336 337 337 337 337
312 312 317 317 316 314 311 312 312 312 312 311 312 313 310 310 311 312 312 313 313 317 321 345 348 345 345 339 338 338 338 337 336 336 338 339 341 340 339 339 338 337 337 336 336 336 336 337 337
310 311 312 316 317 312 308 309 308 307 308 309 310 310 309 310 311 312 312 312 314 317 317 317 321 337 341 342 342 340 338 337 336 336 338 339 339 339 340 339 338 338 337 336 336 336 335 336 337
310 309 313 313 311 309 307 307 307 308 308 309 310 309 309 310 311 311 310 312 316 314 314 314 315 316 316 320 332 340 343 341 339 335 335 337 339 339 338 339 339 338 337 336 336 336 335 335 336
310 312 311 311 307 307 307 307 307 307 307 309 308 308 308 309 309 313 313 312 312 311 311 311 311 311 312 313 315 316 319 332 340 339 335 334 337 339 340 339 339 338 338 337 336 336 336 335 335
310 309 311 308 307 306 307 308 307 307 308 308 307 307 306 312 312 312 311 311 310 309 308 309 309 309 309 309 309 310 312 316 318 326 341 336 334 337 339 340 340 338 338 338 336 335 335 334 335
308 308 309 307 306 306 306 307 307 306 306 306 306 306 312 312 311 310 309 309 308 307 306 307 307 308 306 307 308 308 308 309 311 314 321 340 338 336 338 340 342 340 339 338 337 335 334 334 334
308 308 307 308 308 308 308 308 307 307 305 306 307 312 311 310 309 308 307 306 306 305 305 305 304 304 305 306 306 306 307 307 308 309 313 319 338 340 338 338 340 341 340 338 337 336 334 333 333
309 307 306 307 307 308 308 307 306 307 306 306 310 312 310 309 308 307 307 305 305 304 303 303 303 303 303 302 303 304 305 306 307 307 309 314 322 336 341 339 340 340 338 336 337 335 335 335 333
308 307 306 306 306 306 306 306 307 306 306 305 312 311 309 308 306 306 305 305 304 303 302 302 302 302 301 301 301 300 302 303 304 306 307 309 315 320 335 340 339 339 340 339 337 335 335 336 334
305 306 305 305 305 306 306 306 305 306 305 308 311 310 308 307 305 305 304 304 303 303 302 301 300 299 298 298 298 298 299 300 301 302 305 307 310 317 328 336 340 338 339 339 339 336 336 336 335
306 305 306 306 307 306 306 306 304 305 305 310 310 308 308 306 305 305 304 304 303 302 300 299 298 298 297 296 296 297 297 297 298 299 301 304 305 309 316 328 335 339 339 338 337 336 336 336 335
307 307 306 305 307 305 305 305 304 304 309 310 308 307 306 305 305 305 304 303 302 301 300 298 297 297 296 295 295 296 296 296 297 298 299 301 304 305 309 316 332 335 339 338 337 336 336 335 335
307 307 305 305 305 305 305 304 302 302 308 309 307 306 305 305 304 304 303 302 301 300 298 297 296 296 295 294 294 295 295 296 296 298 299 301 303 306 310 311 318 333 335 337 336 335 334 334 334
307 306 305 305 304 304 303 302 303 310 309 308 307 305 305 304 303 302 302 301 300 299 296 296 295 295 295 294 294 294 295 296 297 298 299 300 301 303 305 309 315 323 332 335 336 335 335 334 333
306 306 306 305 303 303 303 301 302 311 310 308 306 304 303 303 302 301 300 300 299 297 295 295 295 295 294 293 293 294 294 295 296 297 298 299 301 302 304 307 311 315 330 331 335 335 335 334 333
306 306 305 305 302 302 303 301 300 311 311 308 305 304 303 302 301 300 299 299 298 295 294 293 294 294 294 293 293 293 294 295 295 297 298 299 301 302 305 307 312 314 323 331 332 334 334 334 333
304 303 303 302 301 301 303 302 302 303 311 308 306 304 303 302 301 300 299 298 295 293 293 292 293 293 293 293 293 293 294 295 295 296 299 300 302 304 306 308 311 315 317 330 330 332 334 334 334
302 303 303 304 303 302 305 303 303 309 308 307 306 304 302 301 300 298 297 296 294 293 292 292 292 292 292 293 293 293 294 294 296 296 298 300 303 305 308 310 312 314 315 326 329 325 323 332 333
302 303 305 307 308 309 308 308 310 307 307 306 304 303 302 301 299 298 297 295 293 292 292 291 291 292 292 293 293 293 294 294 295 295 297 299 302 305 309 311 313 315 317 324 327 324 315 315 332
305 303 306 308 308 308 307 310 309 307 306 305 304 303 302 301 299 297 296 295 293 293 292 291 291 291 292 292 292 292 294 294 294 294 296 299 301 304 309 316 315 316 318 324 322 318 315 317 331
306 306 308 307 309 308 306 311 311 309 307 305 303 302 302 300 299 297 296 294 294 293 291 291 291 291 292 292 291 292 293 293 293 294 295 297 299 304 310 316 316 317 318 323 322 318 317 318 323
304 306 308 308 307 310 311 310 309 308 306 305 303 302 301 299 298 296 295 294 293 292 291 290 290 290 291 291 291 291 292 292 293 292 293 295 298 301 307 316 317 316 318 321 320 317 316 319 320
303 306 308 310 310 311 310 310 306 305 304 303 303 303 300 299 298 296 295 293 293 292 291 290 290 290 290 290 290 291 291 291 292 292 292 294 296 298 301 307 314 317 321 320 318 317 317 320 320
Wind_Speed
13 11 8 2 4 5 4 4 1 1 2 4 5 15 9 3 4 5 0 11 4 4 10 10 10 9 7 9 8 7 7 6 7 6 6 7 7 8 8 8 8 8 8 8 8 8 8 7 5
14 6 3 2 5 4 5 4 5 3 1 7 8 6 9 7 4 3 3 10 8 4 8 9 10 9 8 8 8 7 6 6 6 6 6 7 7 7 7 7 7 6 7 7 8 8 8 8 8
11 4 3 4 4 4 1 4 4 1 7 5 5 9 5 2 6 2 9 10 11 9 4 6 8 7 7 7 7 5 5 4 4 6 7 7 8 8 7 6 7 6 5 5 7 8 8 8 8
8 6 4 3 2 4 4 3 4 3 6 8 8 9 2 17 5 3 9 10 11 8 7 7 5 4 6 6 6 5 4 3 4 5 6 8 8 9 8 7 7 6 5 5 6 8 9 9 9
5 3 3 3 4 4 4 1 3 2 4 6 6 4 5 8 21 12 14 12 12 11 8 5 2 2 5 5 5 5 4 4 4 5 6 8 9 10 9 8 7 7 6 7 6 7 9 9 11
4 3 3 1 2 5 3 1 7 5 5 6 9 6 4 9 27 14 13 12 14 11 7 6 6 5 5 4 3 3 3 4 5 5 6 8 11 11 10 9 9 9 8 8 8 8 8 9 10
4 3 2 1 2 1 6 6 5 5 3 4 5 6 2 6 20 26 26 19 14 8 7 8 9 11 2 4 5 5 5 6 6 7 8 9 12 12 12 11 11 10 10 10 10 9 9 9 11
4 3 4 2 1 2 4 3 2 5 4 5 4 5 2 2 14 22 28 27 30 37 28 11 9 9 7 3 6 7 8 8 9 9 10 11 13 13 13 12 12 12 12 11 11 11 10 10 12
3 4 2 2 2 2 5 5 8 5 8 6 4 5 5 8 16 23 27 29 35 35 38 39 31 17 13 12 8 8 8 10 12 12 13 13 15 15 15 15 14 13 13 13 13 12 12 12 12
4 4 6 3 4 1 3 5 4 5 3 5 4 4 10 17 21 26 26 26 33 34 34 34 32 30 30 29 16 15 13 11 12 16 17 17 17 18 18 16 16 15 15 15 14 14 13 14 14
1 5 5 4 4 3 3 1 3 3 4 3 5 4 5 20 25 25 26 24 25 26 34 35 33 33 32 31 28 24 23 18 19 17 19 20 20 20 20 18 18 19 18 18 18 18 18 18 17
3 7 6 7 6 4 4 1 3 2 5 8 8 5 10 19 19 20 23 26 30 32 33 34 34 34 34 33 32 30 26 23 23 23 24 22 22 24 24 23 20 21 22 21 21 22 21 19 20
5 3 2 6 8 7 7 4 4 5 6 8 8 14 18 15 18 21 21 23 25 32 33 34 33 35 36 35 35 35 34 31 27 26 24 29 26 25 26 27 27 26 25 25 24 24 23 22 22
3 3 3 1 2 3 5 3 5 4 9 7 13 18 16 15 15 19 24 23 26 26 32 34 35 36 35 35 35 35 35 35 35 33 26 23 32 30 28 29 30 31 30 28 26 26 26 25 24
3 5 4 4 3 3 3 5 5 6 8 8 20 17 16 15 20 20 18 22 25 25 30 35 35 37 38 38 37 36 36 37 37 37 34 27 26 32 35 32 33 33 31 30 28 26 28 25 24
5 3 2 4 4 6 7 5 4 9 9 8 18 15 14 12 18 20 21 23 24 28 33 35 36 38 39 41 38 35 37 38 37 37 35 34 31 29 33 40 38 38 35 32 31 29 28 28 26
3 4 4 8 7 5 5 3 7 5 6 11 12 11 11 10 13 18 20 23 26 29 32 35 34 33 36 39 34 33 34 34 34 35 36 33 34 31 31 34 40 42 40 38 36 34 33 33 31
5 4 4 5 3 3 4 5 6 4 5 9 8 7 9 9 7 13 21 24 26 29 30 29 31 30 34 33 32 31 28 28 31 32 34 37 39 39 32 34 38 39 41 38 38 36 35 34 35
5 4 5 4 4 4 7 4 8 1 14 8 5 5 8 8 7 18 22 20 25 30 33 34 33 33 36 36 36 36 34 35 31 31 33 36 39 39 41 35 34 40 37 37 41 37 33 31 35
11 11 7 1 2 4 4 6 9 4 7 7 7 6 6 5 6 14 21 22 26 29 30 30 31 31 29 29 32 32 34 31 35 33 32 30 35 34 35 42 36 37 40 40 37 37 26 25 38
5 4 4 5 2 4 3 5 9 5 10 7 6 6 5 7 7 7 13 18 24 29 31 28 33 30 28 32 30 32 32 33 32 31 34 33 34 37 38 36 34 36 37 39 40 40 36 28 31
7 4 4 4 3 4 2 4 6 8 7 7 4 5 6 7 6 6 14 22 23 27 28 29 32 30 27 31 30 30 30 32 34 37 36 37 36 37 38 36 38 36 38 40 37 44 42 36 28
6 4 4 2 3 3 1 1 7 12 7 8 6 5 6 6 6 8 11 12 17 23 23 28 30 29 28 30 29 29 30 33 35 36 38 36 35 35 37 36 36 42 35 40 45 38 40 41 33
8 5 6 5 3 3 7 7 5 6 10 9 4 5 5 5 6 8 11 13 17 21 26 31 28 29 29 30 31 30 32 34 35 35 35 35 36 34 35 36 35 38 38 39 46 43 44 43 39
5 7 1 3 0 6 7 8 10 6 12 10 8 5 4 5 5 5 5 7 17 26 33 31 29 29 30 31 34 33 34 35 33 37 36 37 35 35 36 38 40 38 39 39 37 46 29 25 39
6 8 6 6 5 3 2 5 3 9 10 8 6 6 4 5 5 4 1 12 21 27 30 30 28 27 30 33 35 34 33 34 33 35 38 40 40 39 39 41 42 37 37 38 44 37 32 55 39
5 5 6 3 3 2 3 3 4 9 9 7 6 5 4 4 2 2 8 18 21 27 27 28 25 25 29 33 34 35 34 36 37 42 40 39 40 39 40 37 38 38 37 37 38 38 45 49 38
7 6 3 1 5 5 5 5 4 14 10 7 4 4 4 2 4 5 9 13 17 21 25 27 28 26 29 32 32 32 35 35 37 37 38 39 43 40 40 30 34 31 32 34 39 38 35 36 51
3 3 3 5 4 4 3 4 4 14 9 7 4 3 5 6 7 7 6 15 18 22 25 28 30 29 30 31 33 34 35 36 35 34 37 37 38 36 32 21 26 31 30 32 38 37 33 34 23
7 7 6 4 3 3 1 4 6 7 7 6 5 3 5 7 3 3 8 17 19 20 26 28 29 28 30 31 32 33 34 36 35 36 38 38 37 36 31 23 21 21 30 35 37 37 31 31 28
Wind_Direction
323 323 302 56 53 62 303 318 267 321 20 337 32 88 99 76 85 142 199 12 29 148 165 171 171 166 152 133 129 128 129 135 137 138 143 146 147 145 134 130 139 139 143 148 160 165 164 171 173
329 0 69 81 82 60 298 287 80 7 287 102 90 79 55 67 36 74 24 14 55 130 164 189 174 170 162 146 142 137 135 144 149 152 158 164 162 160 147 147 150 152 156 153 162 175 183 177 181
334 334 75 94 109 146 269 226 192 288 48 40 80 53 26 358 18 70 33 28 98 119 125 177 171 183 174 157 149 146 146 158 172 179 175 180 175 170 165 163 163 169 174 170 175 178 184 185 184
353 11 26 86 126 258 232 208 221 86 23 39 125 69 73 29 33 41 51 67 97 118 104 126 167 179 193 177 167 166 163 179 199 208 195 190 183 180 179 179 179 179 196 189 184 188 191 193 191
23 56 47 35 318 270 16 264 176 38 80 97 82 118 97 12 52 102 62 57 78 108 92 68 28 262 216 204 193 192 189 205 221 226 211 197 189 190 192 187 191 191 202 204 193 197 204 201 196
10 91 52 94 2 320 20 67 81 53 39 99 83 97 52 9 55 78 54 61 61 67 67 37 19 343 239 214 232 242 236 237 240 236 222 206 198 196 202 197 195 202 202 210 214 204 208 205 203
118 79 225 63 271 64 349 322 51 86 60 3 127 105 157 352 71 72 65 68 50 51 40 29 25 25 329 235 244 259 268 266 257 244 230 220 209 207 209 207 205 203 210 211 212 217 218 211 210
110 91 353 348 295 97 321 31 281 49 34 342 27 133 152 300 71 77 70 63 58 57 45 2 359 5 16 303 274 274 270 265 262 255 245 231 223 220 216 213 211 211 214 213 210 210 219 214 212
83 56 350 279 181 163 15 56 344 40 70 40 67 122 143 80 80 71 63 56 50 53 51 51 51 24 356 343 323 304 297 291 283 270 258 246 232 226 224 221 219 218 220 217 213 213 210 216 214
96 116 220 215 161 94 54 71 317 37 68 23 85 74 82 76 79 66 47 52 48 41 38 35 31 24 26 28 10 323 296 295 295 275 263 254 245 234 227 227 227 228 224 223 220 217 212 212 212
199 204 190 164 130 133 119 27 336 40 35 219 144 96 58 74 52 64 61 55 46 38 31 25 19 15 14 9 10 5 7 335 294 288 270 261 256 247 237 228 228 227 222 221 218 217 214 212 211
274 250 172 184 176 133 158 151 359 63 182 188 157 141 76 73 62 61 55 47 36 28 22 17 12 7 3 359 354 348 347 338 339 331 282 265 255 252 245 237 228 222 221 221 222 222 221 218 213
197 318 26 150 173 160 149 170 212 159 212 199 122 77 87 81 77 72 66 55 38 29 18 14 7 2 358 351 345 340 338 332 325 320 324 275 259 252 250 243 238 230 225 224 225 226 223 218 216
277 276 302 270 273 216 170 206 158 226 194 158 97 88 82 80 73 67 51 45 37 26 18 11 6 1 355 348 342 335 331 327 321 315 305 313 275 256 249 246 243 237 230 228 230 229 224 221 217
283 331 338 229 199 230 154 319 226 190 182 141 96 97 92 86 73 69 61 52 34 27 15 8 1 353 352 350 344 337 331 325 319 315 308 296 295 274 257 246 241 240 234 232 232 230 227 224 217
335 21 352 284 137 211 132 246 317 193 155 151 116 106 100 86 82 75 61 45 30 20 14 5 359 353 349 346 343 335 331 326 321 315 309 298 290 283 271 252 243 241 238 237 232 223 224 224 215
333 248 236 313 202 150 158 189 248 195 177 109 117 113 111 99 83 74 55 41 27 17 9 3 359 353 348 345 340 333 329 325 320 314 308 298 288 283 277 260 247 242 241 237 234 225 224 222 217
218 211 253 241 233 119 167 207 247 217 132 121 119 112 109 94 87 73 48 33 20 13 8 3 357 351 347 344 339 333 325 321 318 312 310 304 294 278 277 274 256 240 236 236 231 224 223 221 216
286 301 264 278 181 110 190 222 256 137 105 115 112 109 106 94 103 51 44 32 16 9 5 360 356 352 349 346 341 333 324 320 313 309 304 305 300 293 276 275 265 248 231 226 229 223 216 204 211
256 248 247 301 110 112 173 236 263 344 137 141 137 105 90 83 57 45 36 22 16 7 1 352 354 350 345 341 332 325 318 314 309 308 305 304 301 299 293 276 274 257 243 227 222 211 201 199 202
239 201 209 196 25 359 89 325 262 42 98 106 83 99 82 73 56 42 37 23 14 6 358 351 352 349 344 337 330 325 318 315 314 310 307 305 300 296 289 281 279 270 245 237 216 212 203 196 192
208 188 153 107 99 191 115 260 263 144 123 107 100 82 72 58 46 37 27 21 10 357 350 353 354 349 339 339 332 326 315 308 306 304 302 300 298 289 285 279 273 272 247 240 223 212 208 197 192
217 148 132 119 104 61 277 317 258 131 161 157 163 123 97 83 57 39 44 21 1 352 353 357 354 343 338 336 330 321 310 306 304 302 301 298 292 286 280 273 269 261 263 237 233 214 204 200 201
146 83 40 43 86 271 193 184 240 190 181 155 151 120 91 81 63 49 34 13 356 355 2 0 350 340 338 333 329 323 313 309 308 303 299 296 295 287 278 270 262 256 256 242 232 235 204 200 204
102 99 293 316 239 235 223 209 252 103 127 145 150 134 104 79 53 63 30 4 355 6 6 357 344 336 334 333 333 324 319 314 313 310 303 301 292 284 274 263 259 247 248 237 236 227 261 231 203
194 160 160 214 206 239 187 231 247 109 120 125 137 127 93 70 40 66 39 16 13 8 2 349 339 330 335 335 328 325 319 316 315 312 302 300 291 285 280 264 255 248 247 232 235 221 244 257 226
197 193 168 81 283 54 203 102 91 140 142 146 147 135 113 95 91 102 35 17 12 10 358 343 334 333 336 333 327 325 321 322 318 319 308 304 298 293 288 269 247 241 240 233 224 209 204 211 227
148 154 98 357 196 223 240 201 225 175 165 157 157 154 147 108 52 34 32 7 12 11 357 346 346 339 333 329 331 324 323 320 320 319 312 310 308 303 307 265 245 246 234 225 221 215 201 203 238
130 161 185 168 170 188 193 247 226 164 157 156 162 61 68 32 33 18 341 7 17 14 1 353 350 339 335 332 333 330 326 325 323 323 319 315 317 318 327 289 243 222 215 219 210 213 208 199 229
199 195 167 153 199 248 161 243 106 119 141 148 148 62 66 39 42 330 352 8 20 12 4 353 346 339 337 334 335 332 331 331 330 331 328 329 332 333 332 322 286 252 217 210 198 201 202 217 222